RH
27 26 26 25 25 25 25 25 26 26 26 24 23 22 21 21 21 21 21 21 20 21 21 21 20 19 19 19 18 18 18 18 19 18 18 17 18 20 21 23 26 28 29 31 32 34 36 38 39 40 41 42 42 42 41 40 38 36 34 33 32 31 30 30 29 29 28 29 29 30 31 31 32 32 33 33 34 35 36 36 36 37 37 38 38
26 25 26 25 24 24 25 25 25 26 26 25 23 22 20 19 19 19 19 20 20 20 20 20 19 19 19 18 17 17 17 17 18 18 17 17 18 20 20 21 23 26 28 28 29 31 32 35 36 37 39 40 41 41 41 40 39 38 36 35 34 33 32 31 31 30 29 29 29 30 31 31 33 34 34 35 36 36 37 37 38 39 40 40 40
27 25 24 24 24 24 24 24 25 25 25 25 24 22 20 19 19 18 18 19 19 19 19 19 18 18 18 17 16 16 16 16 17 17 18 18 20 21 21 20 21 23 26 28 29 29 31 32 33 34 35 37 38 39 39 39 39 39 37 36 35 34 34 33 33 33 33 33 33 33 34 34 35 36 37 36 37 38 39 40 40 41 41 41 41
28 25 24 24 24 24 24 24 24 24 25 24 24 23 22 20 19 18 18 18 17 18 18 18 17 17 17 16 15 15 14 15 16 17 18 19 20 22 23 21 21 21 24 26 27 28 30 31 31 31 33 34 35 36 37 37 38 38 37 37 36 36 35 35 35 36 36 36 36 36 37 37 37 38 38 37 38 39 40 40 41 42 43 42 42
30 27 25 25 24 24 23 23 23 23 24 24 23 23 23 22 21 19 18 18 16 16 16 16 15 15 15 15 14 14 14 14 15 16 17 19 21 23 23 22 21 20 22 24 25 27 28 30 30 30 31 32 33 34 34 35 35 36 36 36 36 36 37 37 37 38 37 37 37 37 37 38 38 39 38 37 37 38 39 39 39 40 41 41 41
32 30 28 26 25 24 23 23 22 23 23 23 23 23 23 22 21 20 20 18 16 15 15 14 14 13 14 14 14 13 13 13 14 16 17 19 20 22 23 22 20 20 20 21 23 24 26 28 30 29 29 30 31 31 32 32 33 33 34 35 36 36 36 37 37 37 37 36 36 36 37 37 37 38 37 36 36 36 36 36 36 38 37 37 38
32 31 30 28 26 24 23 22 21 22 22 23 23 22 22 22 21 21 20 19 17 15 14 13 13 12 12 12 12 12 12 13 14 16 17 19 21 21 22 22 21 20 20 20 21 22 24 26 27 28 27 28 29 30 30 30 31 32 33 34 34 35 35 36 36 36 36 37 37 37 37 37 37 37 36 35 35 35 33 33 35 36 35 35 36
32 30 30 29 26 24 23 23 22 22 22 22 22 22 22 22 22 21 21 19 18 16 15 14 12 12 12 12 12 11 12 13 15 16 17 19 20 21 20 20 19 19 19 19 20 21 21 22 24 24 24 24 24 25 26 27 28 30 31 32 33 34 35 36 36 37 36 37 37 36 36 36 36 34 33 33 32 31 31 30 31 34 34 35 36
33 30 29 27 26 24 24 24 24 23 22 22 22 22 22 22 22 22 21 20 18 17 15 14 13 12 12 11 12 12 12 14 15 16 17 18 20 20 19 17 16 16 16 18 18 19 19 19 18 19 19 19 19 20 21 23 25 27 28 29 31 33 34 35 36 35 35 35 35 33 34 35 34 31 30 31 31 30 31 32 34 37 38 38 39
36 33 30 26 25 25 24 23 24 24 23 23 22 22 22 22 22 21 21 20 19 17 16 14 13 12 12 12 12 13 14 15 16 16 17 18 19 19 17 15 15 14 15 16 17 19 19 18 18 17 17 17 17 17 20 22 25 27 28 29 32 33 34 34 34 33 33 34 33 32 32 34 34 33 34 35 37 37 38 40 42 44 46 48 48
37 36 33 28 26 26 25 23 23 24 24 24 23 23 22 22 21 21 21 20 20 18 17 15 14 12 12 12 13 14 15 16 16 16 17 19 19 18 15 14 14 13 14 15 16 17 19 19 18 17 17 17 17 18 22 24 27 28 29 30 32 34 35 34 34 35 35 35 35 35 37 38 38 40 43 46 48 50 52 54 55 57 63 64 60
39 38 35 31 27 27 27 26 25 24 24 24 23 23 22 22 21 21 21 20 20 19 18 17 14 13 13 13 14 15 16 16 16 16 18 19 19 17 15 14 13 14 14 14 15 16 18 18 18 17 17 17 18 21 25 27 29 30 32 33 34 35 36 36 36 37 36 38 40 42 45 46 46 50 55 57 59 60 63 67 70 72 74 73 68
38 38 36 32 29 28 29 28 26 25 23 23 23 23 22 21 20 19 20 20 20 20 20 18 16 15 14 14 14 16 17 18 17 17 18 20 19 17 15 14 14 14 14 14 14 15 16 16 16 16 16 18 22 26 28 29 30 32 34 35 35 35 37 37 38 39 40 43 46 48 50 51 52 56 60 63 63 65 70 75 78 77 74 70 66
37 37 34 30 29 29 30 29 27 25 23 23 23 22 21 20 19 19 20 20 20 20 21 21 19 17 16 16 17 18 19 19 17 18 20 20 20 17 15 15 15 15 14 14 14 14 14 15 15 16 18 23 26 28 29 30 33 36 38 40 41 42 44 45 45 45 46 48 49 50 52 52 53 57 62 65 66 69 76 81 81 77 71 66 63
36 34 30 28 28 29 29 28 26 24 23 22 22 21 20 19 19 19 19 20 20 20 21 21 21 20 20 21 21 21 20 20 19 19 21 21 21 19 17 16 16 15 15 14 14 14 14 15 17 20 23 26 28 30 34 37 41 45 47 49 51 51 51 50 48 48 48 48 49 49 51 53 56 60 65 68 69 73 79 79 78 77 72 66 61
34 30 26 26 26 27 27 26 25 24 23 23 21 20 19 19 19 20 20 20 20 20 21 21 22 23 24 25 26 24 22 21 21 21 22 22 23 21 18 17 17 16 16 16 15 15 16 18 22 25 28 32 35 38 43 46 49 51 52 53 54 53 52 50 48 47 48 48 50 51 53 57 59 62 66 70 70 74 77 75 78 80 73 61 52
30 26 25 25 25 25 25 24 23 23 22 21 19 19 19 19 19 19 19 19 20 20 21 22 24 26 28 29 29 27 24 23 22 22 23 24 24 23 20 19 20 19 19 19 19 19 21 25 29 33 38 41 44 46 48 50 51 52 52 53 53 53 52 50 49 50 51 50 51 54 57 59 60 61 65 68 69 72 75 77 80 78 67 55 48
28 26 24 24 24 24 24 23 22 22 21 20 20 19 19 19 19 19 20 21 22 23 24 25 27 29 30 32 32 30 28 27 25 25 26 26 26 25 23 23 23 23 23 24 24 25 27 30 35 40 44 47 47 49 50 50 51 52 51 52 53 53 53 52 51 52 54 53 54 57 59 60 59 59 62 67 71 74 74 75 75 70 60 51 45
28 26 26 27 26 25 25 25 25 25 25 25 25 25 26 25 26 27 27 28 29 31 31 32 32 33 33 34 35 34 33 32 30 29 29 29 30 29 27 28 28 28 27 27 27 28 29 34 39 43 46 48 49 50 50 50 51 52 53 53 53 53 55 54 54 54 54 55 58 61 62 61 58 57 58 62 69 74 74 69 64 57 51 45 41
29 28 30 31 30 28 28 29 30 31 31 32 33 33 34 34 35 36 37 39 40 41 41 41 40 39 37 37 37 37 36 35 33 32 31 31 33 32 31 31 31 30 30 29 29 30 32 35 40 44 46 48 49 51 52 53 54 55 55 55 54 54 56 57 56 54 54 57 60 62 61 58 55 54 54 55 58 63 65 60 52 45 42 41 39
32 31 31 31 31 32 32 33 34 34 35 36 37 37 38 39 40 42 44 45 46 46 47 47 47 45 43 41 39 39 38 37 36 34 34 34 35 35 33 32 32 32 31 31 31 32 34 37 40 43 45 48 50 53 55 56 57 58 58 56 56 56 57 58 56 54 56 60 61 59 56 54 52 51 51 50 49 47 44 41 41 40 39 39 38
33 31 30 30 32 34 35 35 36 36 37 37 38 40 40 42 44 46 46 47 47 47 48 49 50 50 49 46 44 42 40 39 37 36 36 36 37 38 36 35 34 34 34 34 34 35 37 38 41 44 47 49 52 53 55 57 57 58 58 58 57 57 57 57 56 57 60 60 58 56 54 52 52 51 49 45 39 34 29 28 31 32 32 32 33
34 33 31 32 34 34 35 36 36 37 38 38 39 40 42 44 45 45 46 46 46 47 47 48 49 49 49 49 48 46 44 42 39 39 38 38 38 39 39 38 37 37 37 37 37 38 39 41 44 47 49 51 52 53 54 55 56 58 58 57 56 57 57 58 60 61 62 59 56 54 52 51 50 48 44 37 30 27 27 27 27 27 27 26 27
37 36 35 36 36 37 37 37 39 40 40 40 40 41 42 44 44 44 44 44 44 44 45 45 46 46 47 47 47 46 45 43 41 39 39 40 40 40 40 40 40 40 40 39 39 40 41 43 46 48 50 51 52 52 53 54 56 57 57 57 57 57 57 59 61 61 60 58 55 52 51 50 46 41 35 30 27 26 26 27 27 26 26 26 25
42 42 41 41 41 42 42 42 43 43 42 41 41 42 43 44 45 46 46 45 45 45 44 43 43 43 44 45 45 44 43 43 41 39 39 41 42 42 41 41 41 42 42 43 43 43 43 44 47 49 51 52 52 53 54 55 55 57 57 58 58 56 56 61 65 64 61 57 54 52 50 46 40 34 29 27 25 26 27 27 26 26 26 25 25
46 46 46 45 46 47 47 46 45 45 44 44 44 45 46 46 46 46 47 48 48 48 47 46 45 45 45 45 46 45 44 44 43 42 43 45 45 44 44 43 43 43 44 45 46 46 47 47 48 50 52 53 53 54 55 55 56 59 60 60 57 55 58 64 69 70 66 60 54 50 46 40 35 31 28 26 25 26 27 27 26 26 26 25 24
45 44 44 44 45 46 46 45 46 46 46 46 46 46 46 46 46 46 46 47 48 49 49 47 47 48 48 48 49 48 46 45 45 46 50 53 53 51 48 47 46 45 45 46 47 49 50 51 53 53 54 54 55 55 55 57 59 61 60 59 58 60 64 66 67 68 66 58 51 46 41 37 33 30 27 26 27 28 28 27 27 26 26 25 24
47 45 45 45 45 45 44 44 45 45 45 45 45 45 45 45 45 45 46 46 48 49 48 47 47 48 50 52 52 51 49 47 47 48 52 55 57 57 55 53 51 49 48 49 51 51 53 54 55 56 57 56 56 56 57 59 60 61 62 63 65 67 68 66 63 62 60 52 45 41 38 35 32 29 27 27 28 28 28 28 27 27 27 26 24
49 48 48 47 45 44 43 43 43 44 45 44 44 43 43 43 43 44 45 46 46 48 48 47 48 48 50 51 52 51 50 49 50 52 53 54 57 58 58 59 59 57 56 57 57 57 57 58 59 60 60 59 59 59 59 60 61 63 64 66 66 64 61 59 59 58 55 48 42 38 36 33 30 28 28 28 28 28 28 28 28 28 27 26 25
51 50 49 48 45 43 43 42 42 42 43 43 43 43 41 41 42 43 44 44 44 46 46 46 46 47 48 49 51 51 52 51 51 53 54 55 57 58 58 59 60 61 62 63 62 62 62 63 63 64 63 63 62 60 60 61 62 61 59 58 57 55 54 55 57 55 49 42 39 36 34 31 30 29 29 28 29 29 29 29 29 28 27 27 26
52 50 48 47 46 45 44 43 42 42 42 42 43 43 42 42 41 41 42 42 42 43 43 43 43 43 45 47 48 50 51 51 52 52 53 54 56 59 60 62 62 63 63 63 63 63 64 64 64 64 63 63 62 61 60 60 58 55 52 51 52 54 57 59 55 47 40 37 36 35 32 31 30 30 29 29 29 29 29 29 30 29 29 28 27
50 47 45 44 45 46 45 45 45 44 43 43 44 45 45 44 42 41 41 41 42 42 41 41 41 41 42 44 45 46 48 50 50 50 51 52 54 55 57 60 62 64 64 64 63 64 64 64 63 62 63 63 63 63 61 58 55 53 52 53 55 57 58 55 48 41 38 36 35 33 32 31 31 30 29 29 29 29 30 30 31 30 29 28 27
43 41 40 39 39 40 41 42 44 44 44 44 44 44 45 45 43 41 41 41 41 41 41 41 40 40 41 42 43 44 45 47 48 49 50 50 51 52 53 54 57 59 61 64 66 65 64 64 64 65 67 69 67 64 60 56 55 55 56 58 59 57 52 47 43 40 39 35 33 32 32 31 30 30 30 30 29 30 30 31 31 31 30 29 28
39 36 35 35 34 34 35 37 39 40 41 41 42 42 43 43 42 42 42 42 42 42 42 42 41 41 41 41 42 43 44 45 45 46 46 47 48 49 50 51 52 53 54 58 61 61 60 62 65 67 68 67 63 59 57 56 56 56 57 60 60 54 48 44 42 39 36 33 32 32 32 31 31 31 31 31 31 31 31 31 32 32 30 30 30
39 37 36 36 36 36 35 35 36 36 36 37 39 41 43 44 45 46 47 46 45 43 43 43 43 42 42 42 41 41 42 42 42 44 45 46 47 48 49 51 53 54 56 59 61 62 62 63 63 61 59 58 56 54 55 56 55 52 54 57 55 48 43 40 37 34 33 33 33 32 32 32 33 33 33 34 33 33 32 32 32 32 31 31 31
42 39 38 39 39 37 35 35 35 35 35 36 37 40 42 44 46 47 47 46 44 43 42 42 42 42 41 40 40 39 39 38 38 39 40 42 43 44 49 54 56 59 63 66 64 63 61 58 55 54 53 53 53 51 49 50 49 48 49 49 44 38 36 35 34 34 34 34 34 34 34 34 35 36 36 36 35 35 34 33 33 33 32 32 32
43 41 38 38 37 36 35 34 34 35 36 36 35 36 37 38 39 40 41 40 40 39 39 39 39 39 39 39 39 39 38 38 40 39 41 46 50 51 57 64 64 64 66 65 59 54 53 50 48 50 51 51 50 49 48 49 50 51 49 43 37 35 35 35 34 35 36 35 35 36 36 37 38 38 38 37 38 37 36 35 35 34 33 33 35
42 40 38 38 37 36 35 35 35 36 36 36 36 35 35 35 36 35 35 36 37 37 38 38 38 39 40 41 42 42 42 44 45 43 46 53 58 57 59 64 65 62 62 59 54 51 51 49 47 47 49 49 48 48 49 51 53 50 45 40 36 35 36 36 36 37 37 37 38 38 39 40 40 40 39 39 39 39 38 37 36 35 35 35 36
43 39 39 39 38 38 37 36 37 38 38 38 37 36 36 36 35 35 35 35 35 36 37 38 41 42 42 42 44 45 46 47 47 46 47 52 53 50 47 50 55 57 57 53 51 51 51 50 49 50 52 53 52 49 47 47 47 44 40 38 37 37 37 38 39 39 39 39 40 40 41 41 41 41 41 41 41 41 40 39 37 37 37 38 39
45 40 39 39 39 39 39 38 38 39 39 39 38 38 41 41 38 37 38 36 37 40 42 43 44 46 46 45 45 44 44 45 48 50 51 54 54 52 47 45 49 53 52 49 49 49 47 46 47 50 52 52 50 47 43 40 40 39 38 38 38 39 40 40 40 41 41 42 42 42 42 42 42 42 41 41 42 41 41 41 40 40 40 41 42
47 44 42 42 43 43 42 41 41 41 40 40 39 40 44 44 41 39 40 42 47 54 54 50 50 51 51 51 51 50 48 50 52 52 50 51 54 57 55 51 51 53 53 53 54 53 49 46 45 46 46 46 44 42 40 39 39 39 40 40 41 42 42 42 43 43 44 44 44 44 43 43 42 42 42 42 41 42 42 44 45 44 44 45 45
49 47 45 46 48 47 47 46 45 44 42 42 41 41 43 45 45 45 47 52 56 57 54 49 51 54 54 54 57 57 53 52 54 55 53 52 54 58 59 59 59 60 60 60 59 56 53 49 45 43 44 44 43 43 42 41 42 42 43 43 44 44 44 44 45 45 45 45 44 43 42 42 42 43 43 43 43 44 46 48 50 49 49 49 49
52 50 49 49 50 50 50 49 48 47 45 45 44 42 43 47 50 51 54 58 58 55 51 51 54 58 61 64 65 63 59 57 59 62 63 63 63 63 63 62 62 61 61 60 58 56 54 51 47 45 46 46 45 45 44 44 45 46 46 46 46 46 46 46 46 45 44 43 42 42 42 42 43 44 45 46 47 49 50 52 53 53 53 52 52
55 52 52 52 52 52 51 50 49 49 47 47 46 45 44 45 45 47 52 57 56 52 51 52 53 56 59 62 62 61 60 60 61 63 65 67 67 68 67 65 63 63 62 62 59 57 54 51 48 48 48 48 47 47 47 48 48 49 48 48 47 47 46 45 44 42 42 41 41 42 44 45 46 47 49 52 54 55 55 55 56 57 56 53 52
58 55 53 53 53 54 53 52 52 51 50 50 50 48 46 44 41 42 46 52 54 54 54 53 53 53 53 53 53 54 54 54 55 58 60 63 64 65 67 66 65 64 63 62 59 56 53 50 50 50 50 50 50 49 50 50 49 49 48 48 47 46 45 43 42 41 41 42 44 46 47 48 49 51 52 55 57 59 60 59 60 60 59 56 54
59 57 55 55 55 56 56 56 55 54 54 54 53 51 49 46 44 42 43 47 51 54 55 55 55 54 53 54 55 55 53 53 54 55 57 59 60 62 64 64 63 62 60 59 57 56 54 54 55 56 55 55 55 55 54 53 52 51 50 48 46 44 42 41 41 42 44 46 48 49 50 52 53 52 53 54 58 61 63 64 64 64 62 58 55
62 59 58 57 59 61 61 61 59 57 55 55 55 54 51 49 47 47 48 49 52 54 55 56 56 56 57 58 58 58 57 57 58 58 59 59 59 59 60 59 58 57 57 58 59 60 60 60 62 62 63 63 62 61 60 59 57 55 53 51 49 48 47 47 49 50 50 51 50 50 53 57 57 55 56 59 63 65 67 68 69 68 65 61 59
68 65 62 61 62 63 63 62 61 59 58 57 57 56 55 54 53 53 53 53 55 58 60 61 61 62 63 64 64 64 64 64 64 65 65 64 61 60 61 61 62 62 62 64 65 65 65 66 67 67 67 66 64 63 61 59 57 56 55 55 55 56 56 57 59 60 60 59 57 56 59 64 65 63 62 64 67 70 70 70 71 71 70 70 70
70 68 68 67 66 65 65 66 66 64 62 60 59 58 59 61 62 61 61 62 63 65 66 68 68 69 70 71 72 71 71 70 69 68 67 65 62 61 62 64 66 67 67 67 68 67 68 70 71 70 68 66 63 61 60 58 57 57 58 59 60 61 62 62 62 61 62 61 59 58 63 70 72 71 68 68 69 71 72 72 71 72 75 77 78
70 69 69 70 70 69 70 71 71 69 66 63 61 62 66 69 69 68 67 66 66 67 68 68 69 70 71 73 72 72 71 70 69 68 67 66 66 65 65 67 68 69 69 69 71 72 72 73 73 72 70 68 65 64 63 63 64 65 65 66 65 65 63 61 59 57 56 56 56 58 65 70 73 72 70 69 70 71 74 75 74 75 78 81 83
66 67 69 73 75 75 75 75 73 70 69 66 64 65 69 70 70 69 69 68 67 68 70 70 70 70 71 72 71 70 70 70 70 70 72 73 73 73 74 75 75 76 76 77 77 77 76 75 74 74 74 73 72 71 71 70 71 71 70 68 65 62 59 56 54 52 52 54 55 58 62 65 67 69 71 73 74 74 76 77 77 78 81 84 84